Vertical_Velocity
3 -0 1 1 1 -0 -0 -1 0 1 -1 1 1 2 0 2 -1 2 0 -1 -0 1 0 2 -2 2 -4 -0 1 -0 1 -0 3 -10 3 -2 -3 -4 -4 -7 -2 -2 -4
-1 1 2 -3 -2 0 1 2 -5 -3 2 -1 -1 0 -1 -2 -1 -2 -1 -2 -2 -2 -2 0 -3 -1 -2 -1 -3 -2 2 -3 -1 3 -1 1 1 -4 -1 -3 -4 -1 -1
-2 -4 -2 -0 -0 -1 -1 -2 2 1 1 2 4 3 1 -3 -0 -0 -2 -1 3 3 -1 0 -2 1 -2 -1 -1 -0 1 -2 -3 2 -1 1 1 0 -4 -4 -0 -5 -1
-2 -1 -1 -1 -4 -4 -2 0 2 0 -1 1 0 2 -1 1 -0 -4 -1 1 -0 -2 -0 0 -1 -1 0 -1 0 -1 2 1 -2 0 -1 1 -0 -1 -1 -4 -10 1 -4
-0 -1 -2 -2 0 2 -1 0 -1 -2 -2 -1 1 4 0 2 1 2 0 0 -1 1 -0 -4 -2 0 -0 -1 -0 -1 -1 1 -3 0 -0 1 -1 -1 -1 -3 -3 -3 3
-2 -2 -1 -3 2 0 0 1 -0 0 -2 -3 -1 -1 5 -2 -5 -3 1 2 1 3 -0 -0 -2 -2 -2 0 0 -0 -1 -1 -2 -1 -0 1 -0 -1 0 -2 -4 -3 -8
-0 -1 1 0 1 1 -1 -1 -1 -1 -5 -2 -1 0 -0 2 -1 -2 -3 2 2 1 1 -0 3 -1 -3 -2 -2 -3 1 -3 -0 -0 -2 2 -1 0 1 -0 -2 -2 -1
-1 -1 -1 1 -0 -0 2 3 -3 3 1 -0 -0 -1 0 -3 -1 -1 -2 3 2 1 -1 -2 2 2 1 -1 -0 -2 -2 -2 -0 -0 1 -1 0 1 0 1 -2 -3 -2
-2 -3 -2 -2 -2 -1 -1 -1 0 3 -1 4 2 -0 1 2 -3 -6 -3 2 6 2 4 -0 -3 1 -1 4 -0 0 -0 -5 -1 -1 -1 -2 -1 2 -0 2 0 -2 -2
-1 -1 -0 1 2 -0 0 -3 -6 -3 -2 1 2 -0 0 3 -1 4 -6 -2 0 6 -4 -0 -1 -1 -2 5 6 -2 -1 1 -5 0 -0 1 -3 2 0 1 1 -1 -1
1 -1 -2 -3 -5 -5 -4 -0 0 0 2 -1 6 1 1 0 4 -3 -2 2 -2 3 7 -0 1 -5 -2 1 3 3 -1 -1 -3 0 1 -1 -2 -1 2 -1 2 0 1
0 -0 -1 -3 1 -0 4 -2 2 3 4 1 -1 2 2 -1 0 5 -1 -4 -5 3 3 3 2 0 -7 3 4 -2 3 2 -3 -1 -1 -0 -2 -3 3 -1 -0 2 0
0 1 -2 -3 -1 -1 -1 2 -0 -5 -4 4 -1 4 6 1 5 -2 1 1 3 2 4 2 3 4 -6 2 4 2 0 2 -2 0 -0 -1 -2 -4 0 2 -2 2 1
-3 -0 0 2 -0 3 2 1 1 1 -3 3 3 -2 -3 5 5 1 5 1 -7 4 -0 -3 7 12 2 0 -1 1 5 -0 2 -3 -0 0 -1 -2 -5 2 -0 -2 2
-4 -1 -2 -2 0 3 4 4 -1 9 -5 -0 0 -0 3 10 2 7 10 11 -4 -5 5 4 -4 9 7 -2 -1 -3 2 4 2 0 2 -1 0 -3 -2 -2 1 -1 -1
0 0 -1 -2 -6 -9 -1 6 2 -0 5 -3 -7 -7 7 -1 -2 -3 -1 1 10 -8 -1 12 -2 -3 8 4 -0 -1 0 4 0 2 -0 0 1 -3 0 -3 -2 0 -1
1 4 9 6 1 2 -3 -2 2 17 5 5 -8 -8 -7 6 -1 0 3 4 6 2 10 2 -4 -1 3 3 1 -3 -0 2 3 3 0 1 2 0 -2 0 -6 -1 0
-1 -2 1 1 0 0 1 -2 0 -1 14 18 5 -9 -3 -1 1 3 2 6 3 -4 5 2 -5 2 -1 2 2 1 -2 -0 3 0 1 1 3 0 0 -1 1 -7 0
4 8 8 7 6 4 -0 0 -3 2 -1 5 4 -0 -5 1 3 1 2 4 2 2 0 3 3 -2 -4 6 4 -0 3 1 1 2 1 -1 1 2 -0 -1 -0 0 -6
2 3 5 1 -0 1 5 4 2 -0 1 1 2 3 0 4 6 -0 -0 2 3 1 -2 1 0 5 -3 1 5 2 3 2 2 -0 2 1 -0 4 -1 1 -1 1 -3
2 -5 2 6 2 -1 -1 6 4 -0 -3 3 1 1 -1 4 4 -1 -2 -0 1 1 3 3 2 -1 -2 -0 -1 5 2 3 3 -1 1 4 -0 0 2 1 1 -1 -0
-4 -1 4 -1 3 2 -2 0 4 5 0 2 2 -1 -1 0 4 4 -1 -1 -0 4 -1 -3 1 5 -2 2 -0 -1 5 5 3 -1 -1 -1 3 2 4 1 2 -3 -1
1 -8 -1 1 2 1 1 5 3 -2 0 2 -1 -0 -1 1 1 1 1 -2 -0 -1 1 -0 2 3 -5 -5 -1 1 5 3 -2 -1 -1 1 0 3 2 1 3 -1 -2
7 3 1 1 4 5 5 0 -2 1 1 1 -1 -1 -1 -1 -1 -0 1 2 -1 0 -1 -1 -0 -1 7 4 -4 -1 5 7 -2 0 -2 4 -0 1 4 2 2 1 -1
3 1 4 9 4 0 0 -3 1 1 -1 -1 0 -1 -1 -2 -2 -2 0 2 1 -1 3 2 -1 4 -2 1 7 5 3 3 1 -0 -3 1 1 -1 3 3 2 4 -0
4 6 10 -2 -2 -1 -2 1 1 1 2 -1 -2 -4 -2 -2 -4 -5 -4 -2 -1 1 -0 0 0 1 4 2 3 1 1 -1 4 0 1 1 1 -1 3 2 3 3 1
Height
5822 5818 5814 5811 5807 5803 5800 5795 5792 5787 5783 5779 5775 5772 5768 5764 5760 5758 5755 5752 5749 5746 5743 5740 5735 5731 5727 5721 5718 5713 5709 5702 5697 5689 5684 5675 5666 5656 5646 5635 5624 5614 5603
5815 5811 5808 5804 5801 5796 5793 5789 5784 5782 5775 5770 5767 5763 5760 5757 5753 5750 5747 5744 5740 5736 5732 5729 5726 5722 5717 5712 5708 5704 5700 5694 5688 5683 5676 5669 5660 5651 5641 5630 5619 5608 5598
5808 5804 5800 5796 5792 5788 5784 5780 5776 5773 5769 5766 5761 5757 5753 5749 5745 5741 5737 5734 5731 5727 5723 5720 5717 5713 5708 5703 5700 5696 5692 5685 5680 5675 5669 5662 5654 5646 5635 5625 5615 5603 5594
5801 5797 5793 5788 5784 5780 5777 5773 5768 5765 5762 5758 5754 5750 5745 5742 5737 5733 5729 5726 5721 5718 5714 5710 5707 5704 5700 5695 5691 5687 5683 5678 5672 5668 5662 5656 5649 5641 5631 5621 5610 5600 5589
5793 5789 5785 5781 5777 5773 5769 5764 5761 5757 5753 5750 5746 5742 5737 5734 5729 5725 5721 5717 5714 5710 5705 5701 5697 5694 5690 5687 5683 5679 5675 5670 5664 5661 5655 5650 5643 5636 5627 5619 5609 5597 5588
5785 5781 5777 5773 5769 5766 5761 5756 5752 5748 5744 5740 5737 5733 5730 5726 5721 5715 5712 5709 5706 5701 5697 5693 5689 5685 5681 5679 5676 5671 5667 5663 5658 5654 5648 5644 5638 5631 5624 5616 5606 5597 5586
5778 5773 5769 5765 5761 5757 5752 5748 5744 5739 5736 5731 5727 5723 5719 5716 5712 5706 5701 5698 5695 5692 5688 5684 5680 5676 5673 5670 5669 5665 5660 5655 5651 5647 5642 5638 5633 5627 5620 5613 5605 5596 5586
5769 5765 5760 5756 5752 5748 5744 5740 5736 5732 5727 5722 5717 5712 5708 5705 5701 5697 5692 5690 5686 5683 5678 5675 5673 5669 5665 5662 5659 5657 5653 5648 5644 5640 5637 5632 5628 5623 5616 5610 5602 5595 5586
5759 5755 5751 5747 5742 5738 5734 5729 5726 5722 5718 5714 5710 5705 5700 5695 5690 5685 5680 5678 5677 5674 5670 5666 5662 5660 5656 5654 5652 5647 5645 5642 5637 5633 5629 5626 5623 5618 5613 5608 5600 5593 5586
5749 5745 5741 5736 5733 5728 5723 5719 5714 5710 5707 5702 5697 5693 5689 5685 5679 5675 5669 5665 5665 5662 5659 5656 5651 5649 5646 5646 5644 5639 5635 5634 5631 5627 5623 5621 5617 5614 5609 5604 5598 5592 5586
5739 5734 5730 5726 5722 5716 5712 5708 5703 5699 5694 5689 5684 5681 5676 5671 5665 5660 5656 5653 5649 5648 5648 5646 5641 5638 5636 5636 5634 5631 5628 5625 5623 5621 5617 5614 5611 5608 5605 5601 5596 5591 5585
5728 5724 5719 5714 5709 5705 5700 5694 5689 5685 5680 5675 5671 5666 5660 5656 5651 5646 5640 5637 5635 5633 5631 5631 5630 5628 5625 5624 5624 5621 5620 5617 5613 5612 5610 5607 5605 5602 5600 5597 5593 5589 5584
5716 5711 5706 5701 5696 5691 5686 5681 5675 5669 5664 5659 5655 5651 5646 5640 5635 5629 5625 5621 5619 5616 5615 5614 5615 5614 5614 5613 5612 5610 5611 5609 5606 5604 5603 5601 5598 5596 5594 5592 5589 5586 5582
5703 5697 5691 5686 5681 5676 5671 5665 5659 5653 5647 5642 5636 5631 5629 5625 5619 5613 5609 5604 5603 5602 5599 5598 5600 5601 5601 5599 5600 5599 5600 5600 5598 5596 5595 5593 5592 5589 5588 5587 5585 5582 5579
5687 5681 5675 5670 5666 5660 5655 5650 5643 5637 5631 5625 5617 5613 5608 5606 5600 5597 5592 5589 5586 5585 5583 5583 5584 5589 5588 5586 5585 5587 5589 5590 5588 5587 5586 5585 5585 5582 5581 5580 5579 5578 5575
5669 5664 5658 5652 5648 5643 5637 5633 5625 5618 5610 5603 5600 5597 5592 5586 5583 5578 5575 5572 5570 5568 5568 5567 5568 5573 5575 5573 5571 5573 5576 5579 5579 5579 5578 5577 5577 5575 5574 5573 5573 5573 5571
5650 5645 5639 5632 5626 5621 5617 5613 5609 5602 5592 5586 5580 5578 5573 5570 5566 5562 5558 5556 5554 5553 5553 5550 5553 5555 5560 5560 5558 5561 5565 5567 5568 5569 5568 5568 5568 5567 5567 5567 5566 5567 5566
5631 5624 5619 5612 5606 5601 5597 5593 5588 5584 5578 5569 5560 5560 5557 5553 5549 5546 5542 5541 5538 5536 5536 5536 5537 5539 5544 5548 5547 5549 5553 5554 5557 5557 5558 5558 5559 5559 5558 5559 5559 5559 5560
5609 5602 5596 5590 5584 5581 5576 5572 5568 5563 5558 5553 5547 5542 5540 5535 5533 5530 5528 5526 5524 5522 5522 5523 5524 5526 5528 5534 5536 5537 5540 5543 5545 5547 5548 5548 5549 5550 5550 5550 5552 5551 5552
5585 5580 5574 5569 5565 5561 5557 5552 5547 5543 5540 5536 5533 5529 5526 5523 5519 5517 5516 5515 5513 5511 5510 5510 5511 5513 5514 5519 5523 5525 5528 5531 5533 5534 5536 5537 5539 5541 5541 5542 5543 5544 5544
5565 5560 5556 5552 5547 5543 5539 5535 5532 5530 5527 5523 5519 5516 5514 5512 5509 5505 5503 5502 5501 5500 5500 5500 5501 5501 5502 5504 5508 5512 5515 5518 5520 5522 5524 5526 5528 5531 5531 5533 5533 5535 5536
5549 5546 5541 5536 5532 5528 5524 5522 5518 5517 5514 5511 5506 5503 5501 5497 5494 5492 5490 5488 5487 5487 5487 5487 5488 5489 5489 5491 5494 5497 5501 5504 5507 5509 5511 5513 5517 5520 5522 5523 5524 5526 5527
5535 5531 5525 5521 5518 5514 5512 5509 5507 5505 5502 5498 5494 5490 5486 5482 5479 5477 5475 5472 5471 5471 5471 5471 5472 5474 5476 5477 5478 5483 5487 5490 5493 5496 5499 5502 5505 5509 5511 5513 5515 5517 5518
5519 5514 5510 5507 5506 5503 5500 5499 5498 5495 5491 5486 5480 5476 5471 5467 5463 5460 5457 5455 5453 5452 5453 5453 5456 5457 5460 5461 5465 5468 5472 5475 5479 5483 5486 5490 5493 5497 5501 5503 5505 5507 5509
5506 5502 5498 5497 5495 5493 5493 5492 5489 5485 5479 5473 5468 5463 5456 5451 5446 5441 5437 5433 5431 5431 5430 5432 5436 5440 5443 5447 5449 5453 5457 5462 5466 5470 5474 5479 5482 5485 5489 5493 5495 5497 5499
5494 5492 5490 5488 5488 5488 5487 5485 5481 5476 5470 5464 5458 5450 5443 5436 5429 5423 5419 5414 5412 5410 5411 5412 5415 5419 5425 5429 5434 5439 5443 5448 5453 5457 5462 5466 5470 5473 5478 5482 5485 5488 5489